Weather History for Ladysmith, WI

Change the Weather History Date:

Tuesday, November 6, 2012

  Actual Average (KRPD) Record (KRPD)
Temperature  
Mean Temperature 34 °F -  
Max Temperature 35 °F 42 °F 66 °F (2001)
Min Temperature 33 °F 28 °F 12 °F (2003)
Degree Days  
Heating Degree Days 31    
Moisture  
Dew Point 32 °F    
Average Humidity 93    
Maximum Humidity 100    
Minimum Humidity 75    
Precipitation  
Precipitation 0.04 in - - ()
Sea Level Pressure  
Sea Level Pressure 29.85 in    
Wind  
Wind Speed 7 mph (SSE)    
Max Wind Speed 12 mph    
Max Gust Speed 18 mph    
Visibility 3 miles    
Events Fog , Rain , Snow    
Averages and records for this station are not official NWS values.
T = Trace of Precipitation, MM = Missing Value Source: NWS Daily Summary

Daily Weather History Graph

Daily Weather History Graph

Search for Another Location

Airport:

Trip Planner

Search our weather history database for the weather conditions in past years. The results will help you decide how hot, cold, wet, or windy it might be!

Date:

Astronomy

Nov. 06, 2012 Rise Set
Actual Time 6:51 AM CST 4:43 PM CST
Civil Twilight 6:19 AM CST 5:14 PM CST
Nautical Twilight 5:44 AM CST 5:50 PM CST
Astronomical Twilight 5:09 AM CST 6:24 PM CST
Moon 11:26 PM CST (11/6) 12:41 PM CST (11/6)
Length of Visible Light 10h 55m
Length of Day
9h 52m
Waning Gibbous, 53% of the Moon is Illuminated
Nov 6
Waning Gibbous
Nov 6
Last Quarter
Nov 13
New
Nov 20
First Quarter
Nov 28
Full

Hourly Weather History & Observations

Time (CST) Temp. Windchill Dew Point Humidity Pressure Visibility Wind Dir Wind Speed Gust Speed Precip Events Conditions
12:15 AM 35.6 °F 29.9 °F 28.4 °F 75% 29.99 in 10.0 mi SSE 6.9 mph - N/A   Overcast
12:35 AM 35.6 °F 28.6 °F 28.4 °F 75% 29.98 in 10.0 mi SSE 9.2 mph - N/A   Overcast
12:55 AM 35.6 °F 29.9 °F 28.4 °F 75% 29.97 in 10.0 mi SSE 6.9 mph - N/A   Overcast
1:15 AM 35.6 °F 29.9 °F 28.4 °F 75% 29.96 in 10.0 mi SSE 6.9 mph - N/A   Overcast
1:35 AM 35.6 °F 29.2 °F 28.4 °F 75% 29.95 in 10.0 mi SSE 8.1 mph - N/A   Overcast
1:55 AM 35.6 °F 29.2 °F 28.4 °F 75% 29.95 in 10.0 mi SSE 8.1 mph - N/A   Overcast
2:15 AM 35.6 °F 29.9 °F 28.4 °F 75% 29.94 in 10.0 mi SSE 6.9 mph - N/A   Overcast
2:35 AM 35.6 °F 29.9 °F 28.4 °F 75% 29.93 in 10.0 mi SSE 6.9 mph - N/A   Overcast
2:55 AM 35.6 °F 29.2 °F 28.4 °F 75% 29.92 in 10.0 mi SSE 8.1 mph - N/A   Overcast
3:15 AM 35.6 °F 29.2 °F 30.2 °F 81% 29.90 in 10.0 mi SSE 8.1 mph - N/A   Overcast
3:35 AM 35.6 °F 28.6 °F 30.2 °F 81% 29.90 in 10.0 mi South 9.2 mph 16.1 mph N/A   Overcast
3:55 AM 35.6 °F 28.0 °F 30.2 °F 81% 29.88 in 10.0 mi South 10.4 mph - N/A   Overcast
4:15 AM 35.6 °F 28.6 °F 30.2 °F 81% 29.88 in 10.0 mi South 9.2 mph 16.1 mph N/A   Overcast
4:35 AM 35.6 °F 28.0 °F 32.0 °F 87% 29.87 in 7.0 mi South 10.4 mph 17.3 mph N/A Snow Light Snow
4:55 AM 33.8 °F 25.3 °F 32.0 °F 93% 29.86 in 5.0 mi South 11.5 mph - N/A Snow Light Snow
5:15 AM 33.8 °F 25.3 °F 32.0 °F 93% 29.86 in 3.0 mi SSE 11.5 mph - N/A Snow Light Snow
5:35 AM 33.8 °F 25.3 °F 32.0 °F 93% 29.85 in 3.0 mi SSE 11.5 mph 18.4 mph N/A Snow Light Snow
5:55 AM 33.8 °F 25.3 °F 32.0 °F 93% 29.84 in 3.0 mi SSE 11.5 mph - N/A Snow Light Snow
6:15 AM 33.8 °F 25.8 °F 32.0 °F 93% 29.83 in 3.0 mi SSE 10.4 mph - N/A Snow Light Snow
6:35 AM 33.8 °F 25.8 °F 32.0 °F 93% 29.81 in 2.5 mi SSE 10.4 mph 18.4 mph N/A Snow Light Snow
6:55 AM 33.8 °F 25.8 °F 32.0 °F 93% 29.81 in 2.0 mi SSE 10.4 mph - N/A Snow Light Snow
7:15 AM 33.8 °F 26.4 °F 32.0 °F 93% 29.82 in 1.5 mi SSE 9.2 mph 16.1 mph N/A Snow Light Snow
7:35 AM 33.8 °F 26.4 °F 32.0 °F 93% 29.81 in 1.2 mi SSE 9.2 mph - 0.01 in Snow Light Snow
7:55 AM 33.8 °F 26.4 °F 32.0 °F 93% 29.81 in 1.2 mi SSE 9.2 mph - 0.02 in Snow Light Snow
8:15 AM 33.8 °F 27.0 °F 32.0 °F 93% 29.81 in 1.5 mi SSE 8.1 mph - N/A Snow Light Snow
8:35 AM 33.8 °F 26.4 °F 32.0 °F 93% 29.80 in 1.5 mi SSE 9.2 mph - N/A Snow Light Snow
8:55 AM 33.8 °F 25.8 °F 32.0 °F 93% 29.80 in 2.0 mi SSE 10.4 mph - N/A Rain Light Rain
9:15 AM 33.8 °F 26.4 °F 32.0 °F 93% 29.79 in 1.8 mi SSE 9.2 mph - N/A Snow Light Snow
9:35 AM 33.8 °F 26.4 °F 32.0 °F 93% 29.79 in 1.5 mi SSE 9.2 mph - 0.01 in Snow Light Snow
9:55 AM 33.8 °F 25.8 °F 32.0 °F 93% 29.79 in 1.5 mi SSE 10.4 mph - 0.01 in Rain Light Rain
10:15 AM 33.8 °F 26.4 °F 32.0 °F 93% 29.79 in 1.5 mi SSE 9.2 mph - 0.01 in Snow Light Snow
10:35 AM 33.8 °F 26.4 °F 32.0 °F 93% 29.79 in 2.5 mi SSE 9.2 mph - 0.01 in Rain Light Rain
10:55 AM 33.8 °F 27.0 °F 32.0 °F 93% 29.78 in 2.0 mi SSE 8.1 mph - 0.01 in Snow Light Snow
11:15 AM 33.8 °F 27.0 °F 32.0 °F 93% 29.78 in 2.5 mi South 8.1 mph - N/A Rain Light Rain
11:35 AM 33.8 °F 27.0 °F 32.0 °F 93% 29.77 in 3.0 mi South 8.1 mph - N/A Rain Light Rain
11:55 AM 33.8 °F 27.0 °F 32.0 °F 93% 29.77 in 2.5 mi South 8.1 mph - N/A Rain Light Rain
12:15 PM 33.8 °F 27.0 °F 32.0 °F 93% 29.76 in 3.0 mi SSE 8.1 mph - N/A Rain Light Rain
12:35 PM 33.8 °F 27.7 °F 32.0 °F 93% 29.76 in 2.5 mi SSE 6.9 mph - N/A Snow Light Snow
12:55 PM 33.8 °F 27.7 °F 32.0 °F 93% 29.76 in 4.0 mi SSE 6.9 mph - N/A Rain Light Rain
1:15 PM 33.8 °F 28.6 °F 32.0 °F 93% 29.76 in 3.0 mi South 5.8 mph - N/A Rain Light Rain
1:35 PM 33.8 °F 28.6 °F 33.8 °F 100% 29.76 in 2.5 mi South 5.8 mph - N/A Snow Light Snow
1:55 PM 33.8 °F 28.6 °F 33.8 °F 100% 29.77 in 3.0 mi South 5.8 mph - N/A   Overcast
2:15 PM 33.8 °F 29.6 °F 33.8 °F 100% 29.77 in 2.5 mi South 4.6 mph - N/A   Overcast
2:35 PM 33.8 °F 28.6 °F 33.8 °F 100% 29.77 in 3.0 mi SSE 5.8 mph - N/A   Overcast
2:55 PM 33.8 °F 30.8 °F 33.8 °F 100% 29.78 in 3.0 mi South 3.5 mph - N/A   Overcast
3:15 PM 33.8 °F 30.8 °F 33.8 °F 100% 29.79 in 2.5 mi South 3.5 mph - N/A   Light Drizzle
3:35 PM 33.8 °F - 33.8 °F 100% 29.79 in 2.0 mi Calm Calm - N/A   Overcast
3:55 PM 33.8 °F - 33.8 °F 100% 29.80 in 2.0 mi Calm Calm - N/A   Overcast
4:15 PM 33.8 °F - 33.8 °F 100% 29.81 in 1.5 mi Calm Calm - N/A   Overcast
4:35 PM 33.8 °F - 33.8 °F 100% 29.81 in 1.5 mi Calm Calm - N/A   Overcast
4:55 PM 33.8 °F 30.8 °F 33.8 °F 100% 29.81 in 1.8 mi East 3.5 mph - N/A   Overcast
5:35 PM 33.8 °F - 33.8 °F 100% 29.83 in 0.8 mi Calm Calm - N/A   Overcast
5:55 PM 33.8 °F - 33.8 °F 100% 29.84 in 0.5 mi Calm Calm - N/A Fog Fog
6:15 PM 33.8 °F - 33.8 °F 100% 29.84 in 0.5 mi Calm Calm - N/A Fog Fog
6:35 PM 33.8 °F 30.8 °F 33.8 °F 100% 29.84 in 0.5 mi East 3.5 mph - N/A Fog Fog
6:55 PM 33.8 °F - 33.8 °F 100% 29.85 in 0.5 mi Calm Calm - N/A Fog Fog
7:15 PM 33.8 °F - 33.8 °F 100% 29.85 in 0.5 mi Calm Calm - N/A Fog Fog
7:35 PM 33.8 °F - 33.8 °F 100% 29.86 in 0.5 mi Calm Calm - N/A Fog Fog
7:55 PM 33.8 °F - 33.8 °F 100% 29.87 in 0.5 mi Calm Calm - N/A Fog Fog
8:15 PM 33.8 °F - 33.8 °F 100% 29.87 in 0.2 mi Calm Calm - N/A Fog Fog
8:35 PM 33.8 °F - 33.8 °F 100% 29.88 in 0.2 mi Calm Calm - N/A Fog Fog
8:55 PM 33.8 °F 30.8 °F 33.8 °F 100% 29.88 in 0.5 mi ESE 3.5 mph - N/A Fog Fog
9:15 PM 33.8 °F - 33.8 °F 100% 29.88 in 1.2 mi Calm Calm - N/A   Overcast
9:35 PM 33.8 °F - 33.8 °F 100% 29.89 in 0.8 mi Calm Calm - N/A   Overcast
9:55 PM 33.8 °F - 33.8 °F 100% 29.89 in 0.8 mi Calm Calm - N/A   Overcast
10:15 PM 33.8 °F - 33.8 °F 100% 29.90 in 0.5 mi Calm Calm - N/A Fog Fog
10:35 PM 33.8 °F - 33.8 °F 100% 29.90 in 0.2 mi Calm Calm - N/A Fog Fog
10:55 PM 33.8 °F - 33.8 °F 100% 29.91 in 0.2 mi Calm Calm - N/A Fog Fog
11:15 PM 33.8 °F - 33.8 °F 100% 29.92 in 0.5 mi Calm Calm - N/A Fog Fog
11:35 PM 33.8 °F - 33.8 °F 100% 29.92 in 0.5 mi Calm Calm - N/A Fog Fog
11:55 PM 33.8 °F - 33.8 °F 100% 29.93 in 0.8 mi Calm Calm - N/A   Overcast